Regional Weather Roundup
Issued by NWS

Home | Current Version | Previous Version | Text Only | Print | Product List | Glossary On
Versions: 1 2 3 4 5 6 7 8 9 10 11 12 13 14 15 16 17 18 19 20 21 22 23 24 25 26 27 28 29 30 31 32 33 34 35 36 37 38 39 40 41 42 43 44 45 46 47 48 49 50
000
ASUS43 KMPX 040801
RWRMN
WEATHER ROUNDUP FOR MINNESOTA
NATIONAL WEATHER SERVICE TWIN CITIES/CHANHASSEN MN
300 AM CDT SAT JUL 04 2015


NOTE: "FAIR" INDICATES FEW OR NO CLOUDS BELOW 12,000 FEET WITH NO
SIGNIFICANT WEATHER AND/OR OBSTRUCTIONS TO VISIBILITY. N/A MEANS
CURRENT SKY AND/OR WEATHER CONDITIONS ARE NOT AVAILABLE.

MNZ060>063-068>070-040900-
   Twin Cities Metro

CITY           SKY/WX    TMP DP  RH WIND       PRES   REMARKS
TWIN CITIES    MOCLDY    69  60  73 SW3       29.93R
ST PAUL        CLEAR     64  61  90 CALM      29.92S
CRYSTAL        CLEAR     64  60  87 CALM      29.91S
BLAINE         CLEAR     66  63  88 CALM      29.92S
LAKEVILLE      CLEAR     57  57 100 CALM      29.93S
EDEN PRAIRIE   CLEAR     65  61  87 CALM      29.92S
SOUTH ST PAUL  CLEAR     64  59  82 CALM      29.92S
LAKE ELMO      FAIR      61  59  94 CALM      29.93S
$$
MNZ001>005-007-008-013>017-022>024-027-028-040900-
   Northwest Minnesota

CITY           SKY/WX    TMP DP  RH WIND       PRES   REMARKS
BEMIDJI        FOG       55  54  97 CALM      29.94S VSB 1/2
HALLOCK        CLEAR     59  57  94 SE7       29.88S FOG
ROSEAU         CLEAR     59  54  82 S5        29.90F
WARROAD        CLEAR     61  57  88 CALM      29.91F
THIEF RVR FALL MOCLDY    61  61 100 SE5       29.92S VSB 1/2
CROOKSTON      CLEAR     61  57  88 SE5       29.91S FOG
FOSSTON          N/A     55  50  82 CALM      29.94S HAZE
DETROIT LAKES  CLEAR     63  59  88 CALM      29.95S FOG
MOORHEAD       CLEAR     63  61  94 SE3       29.92S FOG
PARK RAPIDS    CLOUDY    58  55  90 W3        29.95R FOG
MAHNOMEN       CLOUDY    61  60  96 CALM      29.93R FOG
$$
MNZ006-009>011-018-025>026-040900-
   North Central Minnesota

CITY           SKY/WX    TMP DP  RH WIND       PRES   REMARKS
BAUDETTE       CLEAR     58  52  80 S5        29.92S
FLAG ISLAND    CLEAR     66  57  72 CALM      29.89S
INTL FALLS     CLEAR     49  48  97 CALM      29.94S
WASKISH        CLEAR     55  54  94 CALM      29.94S FOG
BIG FORK       CLEAR     50  48  93 CALM      29.96R FOG
LONGVILLE      CLEAR     54  54 100 CALM      29.94S FOG
GRAND RAPIDS   CLEAR     54  52  94 CALM      29.95R
CRANE LAKE     CLEAR     48  46  93 CALM      29.97R
ORR            CLEAR     52  48  87 CALM      29.94R
COOK           CLEAR     52  50  93 CALM      29.96S
WALKER           N/A     55  55  99 CALM      29.95R FOG
$$
MNZ012-019>021-037-040900-
   Northeast Minnesota

CITY           SKY/WX    TMP DP  RH WIND       PRES   REMARKS
DULUTH         CLEAR     61  53  75 NE5       29.94R
ELY            CLEAR     48  46  93 CALM      29.96R
HIBBING        CLEAR     50  49  96 NW3       29.95R
DULUTH HARBOR  CLEAR     64  61  88 NE5       29.93R
SILVER BAY     CLEAR     61  55  82 N5        29.93R
GRAND MARAIS     N/A     54  52  93 CALM      29.92R
G MARAIS ARPRT CLEAR     50  46  87 N3        29.97S FOG
$$
MNZ029>031-032-039>041-046>048-054>057-064-040900-
   West Central Minnesota

CITY           SKY/WX    TMP DP  RH WIND       PRES   REMARKS
FERGUS FALLS   CLEAR     66  64  94 E3        29.93R FOG
WHEATON        CLEAR     59  57  94 CALM      29.94R FOG
MORRIS         FOG       63  61  94 SE3       29.93R VSB 1
ALEXANDRIA     CLOUDY    64  61  90 SE3       29.96R FOG
ELBOW LAKE     FAIR      67  63  85 E6        29.93S FOG
WADENA         MOCLDY    57  55  94 CALM      29.95R FOG
GLENWOOD       CLEAR     64  63  94 NE3       29.95S FOG
APPLETON       FOG       64  61  88 CALM      29.92S VSB<1/4
BENSON         FOG       61  57  88 CALM      29.93S VSB<1/4
ORTONVILLE     CLEAR     64  61  88 CALM      29.93R FOG
MADISON          N/A     63  61  94 W5        29.93S FOG
WILLMAR        FOG       63  63 100 CALM      29.95S VSB 1/4
$$
MNZ033>034-036-042>043-049>051-058-059-040900-
   Central Minnesota

CITY           SKY/WX    TMP DP  RH WIND       PRES   REMARKS
ST CLOUD       FOG       60  60 100 CALM      29.93R VSB 1/4
SAUK CENTRE    CLOUDY    60  59  98 CALM      29.94S FOG
PAYNESVILLE    FOG       55  55 100 S5        29.94S VSB 1/4
AITKIN         HAZE      54  48  82 CALM      29.92S VSB 1/4
PINE RIVER     CLEAR     55  54  94 CALM      29.97S FOG
BRAINERD       PTCLDY    54  54 100 CALM      29.94S FOG
STAPLES        CLOUDY    59  57  94 CALM      29.95R FOG
LONG PRAIRIE   CLOUDY    61  59  94 CALM      29.95R FOG
LITTLE FALLS   FOG       59  57  94 CALM      29.94R VSB 3/4
LITCHFIELD     CLEAR     64  63  94 CALM      29.94R
BUFFALO        CLEAR     62  59  88 CALM      29.94S
MAPLE LAKE       N/A     62  62  97 CALM      29.94R FOG
$$
MNZ037-044-045-052-053-040900-
   East Central Minnesota

CITY           SKY/WX    TMP DP  RH WIND       PRES   REMARKS
PRINCETON      MOCLDY    61  61 100 CALM      29.92S FOG
MORA           FOG       55  55 100 CALM      29.94R VSB 1/2
CAMBRIDGE      CLEAR     63  55  77 CALM      29.91R HAZE
RUSH CITY      FOG       58  57  97 CALM      29.92R VSB 1
MOOSE LAKE     FOG       55  54  94 CALM      29.91R VSB 3/4
HINCKLEY       FAIR      59  59 100 CALM      29.92S FOG
CLOQUET        CLEAR     54  52  94 CALM      29.94R FOG
MCGREGOR         N/A     54  54 100 CALM      29.95R VSB 3/4
$$
MNZ071>073-080-081-089-090-097-098-040900-
   Southwest Minnesota

CITY           SKY/WX    TMP DP  RH WIND       PRES   REMARKS
MONTEVIDEO     CLEAR     64  63  94 CALM      29.94R FOG
GRANITE FALLS  CLEAR     63  61  94 CALM      29.94S FOG
CANBY          PTCLDY    66  64  92 SW5       29.95R FOG
MARSHALL       CLEAR     68  61  77 W9          N/A
REDWOOD FALLS  CLEAR     66  62  87 SW3       29.93S
OLIVIA         MOCLDY    64  59  82 CALM      29.93S
PIPESTONE      CLEAR     63  61  94 CALM      29.98S FOG
WINDOM         CLEAR     64  59  82 SW5       29.97S
WORTHINGTON    CLEAR     64  55  72 SW9       29.98S
JACKSON        CLEAR     64  57  77 SW6       29.98S
TRACY          CLEAR     67  64  89 SW8       29.96R
SLAYTON        MOCLDY    65  63  91 CALM      29.99R
$$
MNZ065>067-074>077-082>085-091>093-040900-
   South Central Minnesota

CITY           SKY/WX    TMP DP  RH WIND       PRES   REMARKS
MANKATO        CLEAR     63  57  82 S5        29.94S
NEW ULM        CLEAR     63  61  94 CALM      29.94S
ST JAMES       PTCLDY    63  61  94 SW3       29.96S
FAIRMONT       PTCLDY    63  54  72 SW6       29.96R
GLENCOE        MOCLDY    62  60  93 CALM      29.93R
FARIBAULT      CLEAR     61  57  88 CALM      29.95S
OWATONNA       CLEAR     63  55  77 CALM      29.95S
WASECA         CLEAR     59  55  88 CALM      29.96S
ALBERT LEA     CLEAR     61  55  82 CALM      29.96S
$$
MNZ078>079-086>088-094>096-040900-
   Southeast Minnesota

CITY           SKY/WX    TMP DP  RH WIND       PRES   REMARKS
ROCHESTER      CLEAR     58  55  90 SW5       29.97R
RED WING       CLEAR     59  57  94 CALM      29.92S
DODGE CENTER   PTCLDY    61  55  82 SW6       29.96S
WINONA         CLEAR     61  59  94 CALM      29.94S
AUSTIN         CLEAR     59  55  88 CALM      29.96S
PRESTON        CLEAR     61  53  76 W6        29.97S
$$
ABBREVIATIONS USED IN REMARKS
   TC - TEMPERATURES IN CELSIUS
  WCI - WIND CHILL INDEX
   HX - HEAT INDEX
  VSB - VISIBILITY
$$


USA.gov is the U.S. government's official web portal to all federal, state and local government web resources and services.